{"data":{"norad_id":66816,"epoch":"2026-05-25T03:00:53.898048Z","epoch_age_seconds":57990,"freshness":"FRESH","line1":"1 66816U 25278AB  26145.12562382  .00049683  00000+0  18002-2 0  9990","line2":"2 66816  43.0024  42.2894 0001990 298.0802  61.9848 15.27627271 26902","mean_motion":15.27627271,"eccentricity":0.000199,"inclination_deg":43.0024,"raan_deg":42.2894,"arg_perigee_deg":298.0802,"mean_anomaly_deg":61.9848,"bstar":0.0018002,"rev_number":2690,"period_min":94.263831717102,"perigee_km":481.54220544392,"apogee_km":484.27290117614,"semimajor_km":6861.04455331,"source":"CELESTRAK","updated_at":"2026-05-25T13:38:21.332400Z"}}